This is the latest recevied weather packets stored in our database for station/object DJ0JJ-11. If no packets are shown the sender has not sent any weather packets the latest 10 day(s).
| Time | Temp. | Humidity | Pressure | Rain* | Wind** | Luminosity | Snow |
|---|---|---|---|---|---|---|---|
| 1787650527 | 16.11° C | 91% | 1015.5 hPa | - | - | - | - |
| 1787649627 | 16.11° C | 93% | 1015.4 hPa | - | - | - | - |
| 1787648727 | 16.11° C | 93% | 1015.4 hPa | - | - | - | - |
| 1787647827 | 16.11° C | 91% | 1015.3 hPa | - | - | - | - |
| 1787646926 | 16.11° C | 93% | 1015.3 hPa | - | - | - | - |
| 1787646026 | 16.11° C | 95% | 1015.4 hPa | - | - | - | - |
| 1787645125 | 16.11° C | 95% | 1015.4 hPa | - | - | - | - |
| 1787644229 | 16.11° C | 91% | 1015.3 hPa | - | - | - | - |
| 1787643328 | 16.11° C | 90% | 1015.3 hPa | - | - | - | - |
| 1787642428 | 16.11° C | 88% | 1015.1 hPa | - | - | - | - |
| 1787641528 | 16.11° C | 87% | 1014.9 hPa | - | - | - | - |
| 1787640628 | 16.11° C | 85% | 1014.7 hPa | - | - | - | - |
| 1787639728 | 16.11° C | 81% | 1014.7 hPa | - | - | - | - |
| 1787638828 | 16.11° C | 81% | 1014.4 hPa | - | - | - | - |
| 1787637928 | 16.11° C | 81% | 1014.5 hPa | - | - | - | - |
| 1787637028 | 16.11° C | 78% | 1014.3 hPa | - | - | - | - |
| 1787636128 | 16.11° C | 75% | 1014.2 hPa | - | - | - | - |
| 1787635228 | 16.11° C | 77% | 1014 hPa | - | - | - | - |
| 1787634327 | 16.11° C | 75% | 1013.8 hPa | - | - | - | - |
| 1787633427 | 16.11° C | 76% | 1013.7 hPa | - | - | - | - |
| 1787632527 | 16.11° C | 75% | 1013.5 hPa | - | - | - | - |
| 1787631627 | 16.67° C | 74% | 1013.5 hPa | - | - | - | - |
| 1787630727 | 16.67° C | 73% | 1013.4 hPa | - | - | - | - |
| 1787629827 | 16.67° C | 73% | 1013.2 hPa | - | - | - | - |
| 1787628927 | 16.67° C | 72% | 1013.2 hPa | - | - | - | - |
* Rain since midnight (hover to see other rain measurements)
** Current wind speed in m/s (hover to see current wind gust speed)